Location: Unspecified
(0.0000°N, 0.0000°E)
Time: 01:21:12
(UTC+00:00)

SEEDS - Pass Details

Date: 27 March 2019
Orbit: 585 x 605 km, 97.5° (Epoch: 19 July)

Event Time Altitude Azimuth Distance (km) Brightness Sun altitude
Rises 05:41:04 0° 22° (NNE) 2,794 ? -6.1°
Reaches altitude 10° 05:43:16 10° 28° (NNE) 1,898 ? -5.6°
Maximum altitude 05:47:13 45° 101° (ESE) 796 ? -4.6°
Drops below altitude 10° 05:51:11 10° 175° (S) 1,912 ? -3.6°
Sets 05:53:25 0° 181° (S) 2,818 ? -3.0°
